Name,Date (UTC),Temp (C),RGauge (mm),SWE (mm),SD (cm)
Nostetuko River,2020-09-21 00:00:00,9.7,525,7,4
Nostetuko River,2020-09-21 01:00:00,8,525,7,4
Nostetuko River,2020-09-21 02:00:00,7.7,525,7,3
Nostetuko River,2020-09-21 03:00:00,7.5,526,7,3
Nostetuko River,2020-09-21 04:00:00,6.9,527,7,3
Nostetuko River,2020-09-21 05:00:00,6.9,526,7,3
Nostetuko River,2020-09-21 06:00:00,6.8,528,7,3
Nostetuko River,2020-09-21 07:00:00,6.7,529,5,3
Nostetuko River,2020-09-21 08:00:00,6.6,530,5,3
Nostetuko River,2020-09-21 09:00:00,6.4,531,5,3
Nostetuko River,2020-09-21 10:00:00,6.2,532,5,3
Nostetuko River,2020-09-21 11:00:00,6,532,5,3
Nostetuko River,2020-09-21 12:00:00,5.9,533,5,3
Nostetuko River,2020-09-21 13:00:00,5.8,533,5,3
Nostetuko River,2020-09-21 14:00:00,5.4,534,5,3
Nostetuko River,2020-09-21 15:00:00,5.6,534,4,3
Nostetuko River,2020-09-21 16:00:00,6.2,534,4,3
Nostetuko River,2020-09-21 17:00:00,5.8,535,4,3
Nostetuko River,2020-09-21 18:00:00,5.6,535,4,3
Nostetuko River,2020-09-21 19:00:00,6.1,535,4,3
Nostetuko River,2020-09-21 20:00:00,6.8,536,4,3
Nostetuko River,2020-09-21 21:00:00,8.6,535,4,2
Nostetuko River,2020-09-21 22:00:00,7.3,535,4,2
Nostetuko River,2020-09-21 23:00:00,6.9,536,4,2
Nostetuko River,2020-09-22 00:00:00,7.2,536,4,2
Nostetuko River,2020-09-22 01:00:00,7.6,536,4,3
Nostetuko River,2020-09-22 02:00:00,6.8,536,4,3
Nostetuko River,2020-09-22 03:00:00,6.1,537,4,3
Nostetuko River,2020-09-22 04:00:00,5.9,537,4,3
Nostetuko River,2020-09-22 05:00:00,5.8,537,4,3
Nostetuko River,2020-09-22 06:00:00,5.6,537,4,2
Nostetuko River,2020-09-22 07:00:00,5.3,537,4,2
Nostetuko River,2020-09-22 08:00:00,5.7,537,4,2
Nostetuko River,2020-09-22 09:00:00,5.1,537,4,2
Nostetuko River,2020-09-22 10:00:00,5.6,537,4,2
Nostetuko River,2020-09-22 11:00:00,5.7,537,3,2
Nostetuko River,2020-09-22 12:00:00,5.5,537,3,2
Nostetuko River,2020-09-22 13:00:00,5,537,3,1
Nostetuko River,2020-09-22 14:00:00,4.8,538,3,2
Nostetuko River,2020-09-22 15:00:00,4.8,538,3,2
Nostetuko River,2020-09-22 16:00:00,6.6,537,3,0
Nostetuko River,2020-09-22 17:00:00,7.6,537,3,3
Nostetuko River,2020-09-22 18:00:00,10.4,536,4,2
Nostetuko River,2020-09-22 19:00:00,9.8,537,5,3
Nostetuko River,2020-09-22 20:00:00,9.7,536,5,2
Nostetuko River,2020-09-22 21:00:00,10.3,537,6,3
Nostetuko River,2020-09-22 22:00:00,8.9,536,6,2
Nostetuko River,2020-09-22 23:00:00,9,537,6,4
Nostetuko River,2020-09-23 00:00:00,7.8,538,6,3
Nostetuko River,2020-09-23 01:00:00,7.7,538,6,3
Nostetuko River,2020-09-23 02:00:00,7.2,538,5,3
Nostetuko River,2020-09-23 03:00:00,7.1,538,5,3
Nostetuko River,2020-09-23 04:00:00,7.2,538,5,3
Nostetuko River,2020-09-23 05:00:00,7.3,537,4,3
Nostetuko River,2020-09-23 06:00:00,6.6,538,4,3
Nostetuko River,2020-09-23 07:00:00,6.4,539,4,3
Nostetuko River,2020-09-23 08:00:00,6,539,4,3
Nostetuko River,2020-09-23 09:00:00,6.1,540,4,3
Nostetuko River,2020-09-23 10:00:00,6.9,539,4,3
Nostetuko River,2020-09-23 11:00:00,6.7,540,4,3
Nostetuko River,2020-09-23 12:00:00,4.6,543,4,3
Nostetuko River,2020-09-23 13:00:00,3.2,550,4,3
Nostetuko River,2020-09-23 16:00:00,5.1,550,4,3
Nostetuko River,2020-09-23 17:00:00,7.7,550,3,4
Nostetuko River,2020-09-23 18:00:00,8.3,549,4,1
Nostetuko River,2020-09-23 19:00:00,7.6,550,4,3
Nostetuko River,2020-09-23 20:00:00,8,550,4,3
Nostetuko River,2020-09-23 21:00:00,7.9,550,4,2
Nostetuko River,2020-09-23 22:00:00,8.7,550,4,1
Nostetuko River,2020-09-23 23:00:00,6.7,551,5,2
Nostetuko River,2020-09-24 00:00:00,5.7,555,5,3
Nostetuko River,2020-09-24 01:00:00,5.5,558,5,2
Nostetuko River,2020-09-24 02:00:00,4.8,565,5,3
Nostetuko River,2020-09-24 03:00:00,4,570,5,3
Nostetuko River,2020-09-24 04:00:00,4.1,572,4,2
Nostetuko River,2020-09-24 05:00:00,4.6,572,4,2
Nostetuko River,2020-09-24 06:00:00,4.3,574,4,3
Nostetuko River,2020-09-24 07:00:00,3.5,580,4,3
Nostetuko River,2020-09-24 08:00:00,3.9,582,4,2
Nostetuko River,2020-09-24 09:00:00,3.9,585,4,2
Nostetuko River,2020-09-24 10:00:00,4,586,3,3
Nostetuko River,2020-09-24 11:00:00,4,586,3,2
Nostetuko River,2020-09-24 12:00:00,4.3,587,3,3
Nostetuko River,2020-09-24 13:00:00,3.9,587,3,3
Nostetuko River,2020-09-24 14:00:00,3.7,588,3,2
Nostetuko River,2020-09-24 15:00:00,4.2,588,3,3
Nostetuko River,2020-09-24 16:00:00,4.4,589,3,3
Nostetuko River,2020-09-24 17:00:00,4.3,589,3,3
Nostetuko River,2020-09-24 18:00:00,4.2,592,3,3
Nostetuko River,2020-09-24 19:00:00,4.8,593,3,3
Nostetuko River,2020-09-24 20:00:00,5.3,593,3,3
Nostetuko River,2020-09-24 21:00:00,4.3,596,3,3
Nostetuko River,2020-09-24 22:00:00,4.8,598,3,3
Nostetuko River,2020-09-24 23:00:00,4.9,598,3,3
Nostetuko River,2020-09-25 00:00:00,4.2,600,3,3
Nostetuko River,2020-09-25 01:00:00,3.7,603,3,3
Nostetuko River,2020-09-25 02:00:00,3.8,603,3,3
Nostetuko River,2020-09-25 03:00:00,4.4,604,3,3
Nostetuko River,2020-09-25 04:00:00,4.2,604,3,3
Nostetuko River,2020-09-25 05:00:00,4.3,604,3,2
Nostetuko River,2020-09-25 06:00:00,4.1,604,3,3
Nostetuko River,2020-09-25 07:00:00,4.1,605,3,3
Nostetuko River,2020-09-25 08:00:00,4.1,605,3,3
Nostetuko River,2020-09-25 09:00:00,4.4,606,3,3
Nostetuko River,2020-09-25 10:00:00,4.2,606,3,3
Nostetuko River,2020-09-25 11:00:00,3.8,609,3,2
Nostetuko River,2020-09-25 12:00:00,3.1,612,3,3
Nostetuko River,2020-09-25 13:00:00,2.6,615,3,3
Nostetuko River,2020-09-25 14:00:00,1.8,621,3,2
Nostetuko River,2020-09-25 15:00:00,1.5,626,3,2
Nostetuko River,2020-09-25 16:00:00,2.8,627,3,3
Nostetuko River,2020-09-25 17:00:00,2.8,628,3,3
Nostetuko River,2020-09-25 18:00:00,4.3,631,3,3
Nostetuko River,2020-09-25 19:00:00,6,630,3,3
Nostetuko River,2020-09-25 20:00:00,5.3,630,4,3
Nostetuko River,2020-09-25 21:00:00,6.5,626,5,3
Nostetuko River,2020-09-25 22:00:00,5.1,630,5,3
Nostetuko River,2020-09-25 23:00:00,3.7,631,4,3
Nostetuko River,2020-09-26 00:00:00,4,631,4,3
Nostetuko River,2020-09-26 01:00:00,4.5,632,3,3
Nostetuko River,2020-09-26 02:00:00,3.1,632,3,3
Nostetuko River,2020-09-26 03:00:00,2.8,632,3,3
Nostetuko River,2020-09-26 04:00:00,4.1,632,3,3
Nostetuko River,2020-09-26 05:00:00,3.4,632,3,3
Nostetuko River,2020-09-26 06:00:00,4,633,3,2
Nostetuko River,2020-09-26 07:00:00,3.8,633,3,3
Nostetuko River,2020-09-26 08:00:00,3.3,632,3,3
Nostetuko River,2020-09-26 09:00:00,3.7,633,3,2
Nostetuko River,2020-09-26 10:00:00,2.9,633,3,3
Nostetuko River,2020-09-26 11:00:00,3.5,633,2,3
Nostetuko River,2020-09-26 12:00:00,3.2,633,2,2
Nostetuko River,2020-09-26 13:00:00,2.3,634,2,3
Nostetuko River,2020-09-26 14:00:00,2.1,634,2,2
Nostetuko River,2020-09-26 15:00:00,1.6,635,2,3
Nostetuko River,2020-09-26 16:00:00,3.2,635,2,3
Nostetuko River,2020-09-26 17:00:00,3.2,634,2,3
Nostetuko River,2020-09-26 18:00:00,4,635,2,3
Nostetuko River,2020-09-26 19:00:00,5,634,3,3
Nostetuko River,2020-09-26 20:00:00,5.4,633,3,4
Nostetuko River,2020-09-26 21:00:00,4.3,634,3,3
Nostetuko River,2020-09-26 22:00:00,5.3,634,3,3
Nostetuko River,2020-09-26 23:00:00,5.1,634,3,3
Nostetuko River,2020-09-27 00:00:00,5.3,634,3,3
Nostetuko River,2020-09-27 01:00:00,4.8,634,3,3
Nostetuko River,2020-09-27 02:00:00,3.2,635,3,3
Nostetuko River,2020-09-27 03:00:00,1.8,635,3,2
Nostetuko River,2020-09-27 04:00:00,1.2,635,3,2
Nostetuko River,2020-09-27 05:00:00,0.7,636,3,2
Nostetuko River,2020-09-27 06:00:00,1.1,636,2,2
Nostetuko River,2020-09-27 07:00:00,1.2,635,2,3
Nostetuko River,2020-09-27 08:00:00,1.5,635,2,3
Nostetuko River,2020-09-27 09:00:00,1.4,635,2,2
Nostetuko River,2020-09-27 10:00:00,1.3,635,2,2
Nostetuko River,2020-09-27 11:00:00,2,635,2,3
Nostetuko River,2020-09-27 12:00:00,2.2,635,2,3
Nostetuko River,2020-09-27 13:00:00,2.5,635,2,3
Nostetuko River,2020-09-27 14:00:00,3,635,2,3
Nostetuko River,2020-09-27 15:00:00,3,635,2,3
Nostetuko River,2020-09-27 16:00:00,4.3,634,2,3
Nostetuko River,2020-09-27 17:00:00,4.8,635,2,3
Nostetuko River,2020-09-27 18:00:00,5.3,636,3,4
Nostetuko River,2020-09-27 19:00:00,6.5,633,3,4
Nostetuko River,2020-09-27 20:00:00,6.7,633,3,4
Nostetuko River,2020-09-27 21:00:00,8.1,633,4,4
Nostetuko River,2020-09-27 22:00:00,10,632,5,4
Nostetuko River,2020-09-27 23:00:00,8.7,632,5,4
Nostetuko River,2020-09-28 00:00:00,7.3,633,5,3
Nostetuko River,2020-09-28 01:00:00,7.1,634,5,3
Nostetuko River,2020-09-28 02:00:00,6.9,633,4,3
Nostetuko River,2020-09-28 03:00:00,7.4,631,4,3
Nostetuko River,2020-09-28 04:00:00,8,632,4,3
Nostetuko River,2020-09-28 05:00:00,9.7,633,4,3
Nostetuko River,2020-09-28 06:00:00,11.8,630,5,3
Nostetuko River,2020-09-28 07:00:00,11.6,632,5,4
Nostetuko River,2020-09-28 08:00:00,11.6,631,6,3
Nostetuko River,2020-09-28 09:00:00,11.7,632,6,3
Nostetuko River,2020-09-28 10:00:00,11.5,633,6,4
Nostetuko River,2020-09-28 11:00:00,11.2,630,6,3
Nostetuko River,2020-09-28 12:00:00,11.1,631,6,3
Nostetuko River,2020-09-28 13:00:00,,632,6,
